This is the latest recevied weather packets stored in our database for station/object OK1KZE-6. If no packets are shown the sender has not sent any weather packets the latest 10 day(s).
| Time | Temp. | Humidity | Pressure | Rain* | Wind** | Luminosity | Snow |
|---|---|---|---|---|---|---|---|
| 1777970408 | 17.78° C | 66% | 1011.1 hPa | - | - | - | - |
| 1777970108 | 18.33° C | 66% | 1011 hPa | - | - | - | - |
| 1777969808 | 17.78° C | 68% | 1010.9 hPa | - | - | - | - |
| 1777969508 | 17.78° C | 68% | 1011 hPa | - | - | - | - |
| 1777969207 | -1.11° C | 100% | 1010.8 hPa | - | - | - | - |
| 1777968908 | -1.11° C | 100% | 1010.9 hPa | - | - | - | - |
| 1777968607 | -1.11° C | 100% | 1010.7 hPa | - | - | - | - |
| 1777968307 | 17.22° C | 70% | 1011.1 hPa | - | - | - | - |
| 1777968008 | 17.22° C | 70% | 1010.8 hPa | - | - | - | - |
| 1777967708 | -1.11° C | 100% | 1010.7 hPa | - | - | - | - |
| 1777967408 | -1.11° C | 100% | 1010.9 hPa | - | - | - | - |
| 1777967108 | -1.11° C | 100% | 1010.7 hPa | - | - | - | - |
| 1777966808 | 16.67° C | 71% | 1010.8 hPa | - | - | - | - |
| 1777966507 | 16.67° C | 71% | 1010.9 hPa | - | - | - | - |
| 1777966208 | 16.67° C | 72% | 1011.1 hPa | - | - | - | - |
| 1777965908 | 16.67° C | 72% | 1011.1 hPa | - | - | - | - |
| 1777965607 | 16.67° C | 73% | 1010.9 hPa | - | - | - | - |
| 1777965308 | 16.67° C | 74% | 1010.9 hPa | - | - | - | - |
| 1777965007 | 16.67° C | 74% | 1011 hPa | - | - | - | - |
| 1777964709 | 16.67° C | 72% | 1011 hPa | - | - | - | - |
| 1777964408 | 16.11° C | 76% | 1011.1 hPa | - | - | - | - |
| 1777964108 | 16.11° C | 76% | 1011.4 hPa | - | - | - | - |
| 1777963808 | 15.56° C | 76% | 1011 hPa | - | - | - | - |
| 1777963507 | 15.56° C | 76% | 1011.3 hPa | - | - | - | - |
| 1777963208 | -1.11° C | 100% | 1011.2 hPa | - | - | - | - |
* Rain since midnight (hover to see other rain measurements)
** Current wind speed in m/s (hover to see current wind gust speed)